Powrót do katalogu

SL-16 DEB

AktywnyLEO
NORAD 39707·DEBRIS·🇷🇺 Russia

Wystrzelony Dec 25, 1992 z Baikonur Cosmodrome

Loading…

Następne Przeloty (najbliższe 24 godziny)

TLE

ŚwieżeSource: Space-Track

Epoka: Sep 13, 2026, 23:09 UTC

1 39707U 92093JX  26256.96477599  .00001397  00000-0  53489-3 0  9998
2 39707  71.1103 344.6225 0089422 350.5391   9.4051 14.30114906 17453

Śledź SL-16 DEB w czasie rzeczywistym z AllMySat

Download on the App Store